| time (UTC) | temp F | wind direction | speed MPH | gust MPH | rain 1hr in | rain 24hr in | rain mn in | humidity % | barometer mb |
| 20260503003030 | 58 | 211 | 1.0 | 4.0 | 0.00 | 0.02 | 0.01 | 81 | 1010.4 |
| 20260503001527 | 57 | 212 | 2.0 | 4.0 | 0.00 | 0.02 | 0.01 | 87 | 1010.6 |
| 20260503000023 | 58 | 221 | 1.0 | 4.0 | 0.01 | 0.02 | 0.01 | 90 | 1010.8 |
| 20260502234528 | 58 | 355 | 0.0 | 2.0 | 0.01 | 0.02 | 0.01 | 91 | 1010.9 |
| 20260502233020 | 58 | 355 | 0.0 | 0.0 | 0.01 | 0.02 | 0.01 | 91 | 1011.0 |
| 20260502231519 | 58 | 355 | 1.0 | 3.0 | 0.01 | 0.02 | 0.01 | 90 | 1011.2 |
| 20260502230022 | 58 | 355 | 1.0 | 3.0 | 0.00 | 0.01 | 0.00 | 89 | 1011.2 |
| 20260502224516 | 58 | 355 | 1.0 | 3.0 | 0.00 | 0.01 | 0.00 | 88 | 1011.3 |
| 20260502223014 | 59 | 355 | 0.0 | 2.0 | 0.00 | 0.01 | 0.00 | 88 | 1011.5 |
| 20260502221510 | 59 | 355 | 0.0 | 4.0 | 0.00 | 0.01 | 0.00 | 87 | 1011.6 |
| 20260502220009 | 59 | 360 | 0.0 | 2.0 | 0.00 | 0.01 | 0.00 | 86 | 1011.5 |
| 20260502214508 | 60 | 360 | 1.0 | 4.0 | 0.00 | 0.01 | 0.01 | 87 | 1011.8 |
| 20260502213007 | 60 | 360 | 1.0 | 11.0 | 0.00 | 0.01 | 0.01 | 87 | 1011.7 |
| 20260502211508 | 61 | 273 | 2.0 | 6.0 | 0.00 | 0.01 | 0.01 | 84 | 1012.0 |
| 20260502210005 | 61 | 273 | 0.0 | 3.0 | 0.00 | 0.01 | 0.01 | 81 | 1012.1 |
| 20260502204504 | 62 | 273 | 1.0 | 2.0 | 0.00 | 0.01 | 0.01 | 80 | 1011.9 |
| 20260502203003 | 63 | 273 | 1.0 | 2.0 | 0.00 | 0.01 | 0.01 | 80 | 1012.1 |
| 20260502201503 | 63 | 273 | 0.0 | 0.0 | 0.00 | 0.01 | 0.01 | 79 | 1012.0 |
| 20260502200002 | 64 | 273 | 0.0 | 0.0 | 0.00 | 0.01 | 0.01 | 80 | 1012.1 |
| 20260502194502 | 64 | 273 | 0.0 | 0.0 | 0.00 | 0.01 | 0.01 | 80 | 1012.0 |
| 20260502193108 | 65 | 273 | 0.0 | 2.0 | 0.00 | 0.01 | 0.01 | 80 | 1012.0 |
| 20260502191602 | 65 | 273 | 1.0 | 2.0 | 0.00 | 0.01 | 0.01 | 78 | 1012.0 |
| 20260502190110 | 66 | 273 | 0.0 | 2.0 | 0.00 | 0.01 | 0.01 | 78 | 1012.0 |
| 20260502184604 | 66 | 273 | 1.0 | 3.0 | 0.00 | 0.01 | 0.01 | 78 | 1012.0 |
| 20260502183111 | 67 | 225 | 2.0 | 6.0 | 0.00 | 0.01 | 0.01 | 77 | 1012.0 |
| 20260502181556 | 68 | 94 | 2.0 | 3.0 | 0.00 | 0.01 | 0.01 | 76 | 1011.8 |
| 20260502163054 | 73 | 102 | 3.0 | 8.0 | 0.00 | 0.00 | 0.00 | 62 | 1012.7 |
| 20260502161552 | 74 | 5 | 1.0 | 6.0 | 0.00 | 0.00 | 0.00 | 59 | 1012.5 |
| 20260502151541 | 75 | 32 | 2.0 | 5.0 | 0.00 | 0.00 | 0.00 | 55 | 1013.0 |
| 20260502123029 | 79 | 156 | 7.0 | 14.0 | 0.00 | 0.00 | 0.00 | 39 | 1014.5 |
| 20260502121521 | 79 | 144 | 5.0 | 13.0 | 0.00 | 0.00 | 0.00 | 38 | 1014.6 |
| 20260502114516 | 79 | 129 | 4.0 | 10.0 | 0.00 | 0.00 | 0.00 | 39 | 1015.0 |
| 20260502113012 | 78 | 94 | 3.0 | 10.0 | 0.00 | 0.00 | 0.00 | 40 | 1015.4 |
| 20260502111517 | 77 | 30 | 3.0 | 11.0 | 0.00 | 0.00 | 0.00 | 41 | 1015.6 |
| 20260502110012 | 76 | 91 | 4.0 | 11.0 | 0.00 | 0.00 | 0.00 | 40 | 1015.8 |
| 20260502104505 | 77 | 48 | 2.0 | 9.0 | 0.00 | 0.00 | 0.00 | 39 | 1016.0 |
| 20260502103003 | 75 | 80 | 2.0 | 8.0 | 0.00 | 0.00 | 0.00 | 40 | 1016.2 |
| 20260502101501 | 74 | 59 | 2.0 | 5.0 | 0.00 | 0.00 | 0.00 | 41 | 1016.5 |
| 20260502071524 | 61 | 171 | 4.0 | 8.0 | 0.00 | 0.00 | 0.00 | 52 | 1017.5 |
| 20260502070022 | 62 | 182 | 4.0 | 7.0 | 0.00 | 0.00 | 0.00 | 52 | 1017.5 |
| 20260502064521 | 61 | 186 | 4.0 | 8.0 | 0.00 | 0.00 | 0.00 | 51 | 1017.5 |
| 20260502063026 | 61 | 171 | 4.0 | 6.0 | 0.00 | 0.00 | 0.00 | 52 | 1017.4 |
| 20260502061514 | 60 | 188 | 4.0 | 6.0 | 0.00 | 0.00 | 0.00 | 54 | 1017.5 |
| 20260502060011 | 58 | 188 | 2.0 | 4.0 | 0.00 | 0.00 | 0.00 | 56 | 1017.6 |
| 20260502054509 | 56 | 188 | 2.0 | 5.0 | 0.00 | 0.00 | 0.00 | 60 | 1017.6 |
| 20260502053003 | 55 | 188 | 3.0 | 6.0 | 0.00 | 0.00 | 0.00 | 62 | 1017.6 |
| 20260502051503 | 54 | 189 | 2.0 | 6.0 | 0.00 | 0.00 | 0.00 | 62 | 1017.6 |
| 20260502050058 | 53 | 180 | 2.0 | 4.0 | 0.00 | 0.00 | 0.00 | 61 | 1017.4 |
| 20260502044555 | 53 | 180 | 3.0 | 5.0 | 0.00 | 0.00 | 0.00 | 61 | 1017.4 |
| 20260502043055 | 52 | 180 | 2.0 | 4.0 | 0.00 | 0.00 | 0.00 | 62 | 1017.4 |
| 20260502041604 | 52 | 180 | 2.0 | 4.0 | 0.00 | 0.00 | 0.00 | 61 | 1017.3 |
| 20260502040046 | 52 | 180 | 2.0 | 5.0 | 0.00 | 0.00 | 0.00 | 61 | 1017.6 |
| 20260502034543 | 52 | 180 | 3.0 | 4.0 | 0.00 | 0.00 | 0.00 | 61 | 1017.7 |
| 20260502033050 | 53 | 180 | 3.0 | 7.0 | 0.00 | 0.00 | 0.00 | 61 | 1017.8 |
| 20260502031539 | 53 | 184 | 1.0 | 4.0 | 0.00 | 0.00 | 0.00 | 61 | 1017.8 |
| 20260502030038 | 53 | 190 | 2.0 | 4.0 | 0.00 | 0.00 | 0.00 | 61 | 1017.9 |
| 20260502024538 | 53 | 190 | 3.0 | 6.0 | 0.00 | 0.00 | 0.00 | 62 | 1018.0 |
| 20260502023035 | 53 | 190 | 3.0 | 6.0 | 0.00 | 0.00 | 0.00 | 61 | 1017.9 |
| 20260502021532 | 53 | 172 | 3.0 | 4.0 | 0.00 | 0.00 | 0.00 | 59 | 1018.0 |
| 20260502020030 | 54 | 172 | 2.0 | 5.0 | 0.00 | 0.00 | 0.00 | 58 | 1018.2 |
| 20260502014532 | 54 | 110 | 1.0 | 3.0 | 0.00 | 0.00 | 0.00 | 57 | 1018.2 |
| 20260502013026 | 54 | 110 | 2.0 | 3.0 | 0.00 | 0.00 | 0.00 | 58 | 1018.4 |
| 20260502011524 | 54 | 110 | 2.0 | 3.0 | 0.00 | 0.00 | 0.00 | 57 | 1018.4 |
| 20260502010024 | 55 | 110 | 2.0 | 4.0 | 0.00 | 0.00 | 0.00 | 56 | 1018.5 |
| 20260502004519 | 55 | 110 | 2.0 | 4.0 | 0.00 | 0.00 | 0.00 | 56 | 1018.7 |